Starlink 5346

operational
NORAD ID: 56518 Int'l Des: 2023-065 Owner: SPXS Country: US Constellation: starlink
LEOCIRCULAR

关于 Starlink 5346

正在加载描述...

实时位置

正在加载3D地球...

即将过境

高度历史

Altitude vs Time

uPlot chart will show altitude changes over time

两行轨道根数

1 56518U 23065R 26037.30484617 .00001473 00000-0 12406-3 0 9993
2 56518 43.0037 20.8714 0001126 264.9504 95.1210 15.02538074151905
Epoch: Feb 6, 2026 • Age: 21 hours

当前状态

高度 563.0 km
速度 7.59 km/s
星下点 42.94°N, 104.85°W
发射日期 May 14, 2023
运行时间 2.7 years
类型 internet

技术详情

分类 Payload
质量 305.00 kg
干质量 290.00 kg
总质量 305.00 kg
长度 0.20 m
直径 2.80 m
跨度 9.00 m
形状 Box + pan
制造商 SPXS
平台类型 Starlink
阶段状态 In Orbit
所有者/国家 SPXS/US

大型星座

Loading constellations...